Dewpoint
59 56 58 56 56 56 48 47 43 44 41 36 31 30 28 28 26 25 25 26 27 34 32 35 34 36 33 42 39 49 46 43 46 43 50 56 47 42 52 67 69 69 69 70 71 72 72 73 73 73 72 72 72 72 71 72 72 72 73 72 72 72 72 72 72 72 72 71 71 71 71 71 71 72 71 71 71 71 70 70 70 70 70 70 71 71 71 72 72 72 72 72 72 71 71 71 71
54 53 55 50 54 57 50 47 42 35 36 34 31 26 25 26 31 34 29 28 30 36 38 44 35 34 39 40 42 46 49 50 52 54 53 49 41 42 62 68 68 68 69 70 71 71 71 72 73 73 72 72 72 72 71 71 71 72 72 72 72 72 72 72 71 71 71 71 71 71 72 72 71 71 71 71 71 71 70 70 69 70 70 70 70 71 71 71 72 71 71 71 71 72 71 72 71
50 56 50 46 50 52 48 42 35 31 25 28 28 24 23 19 28 29 30 31 37 37 35 41 37 35 34 35 36 45 48 49 51 51 48 43 39 52 64 68 68 68 69 69 70 70 70 72 73 73 72 72 72 72 71 71 71 71 70 71 70 71 71 71 71 72 71 71 71 72 72 72 71 71 71 71 71 70 70 69 69 70 70 70 70 70 71 71 71 71 71 71 71 71 72 71 72
53 50 52 46 47 48 43 40 37 33 28 22 22 25 24 20 18 27 30 31 34 36 37 35 36 35 35 41 51 49 50 50 49 48 45 42 46 55 65 66 68 68 68 68 69 69 70 72 73 73 72 72 72 72 71 71 71 71 71 71 70 71 71 71 71 72 71 71 70 71 72 72 71 71 70 70 71 70 70 69 69 69 69 69 69 70 70 70 70 70 70 71 71 72 72 72 72
46 52 54 49 43 41 39 32 30 30 26 24 22 21 23 22 20 24 28 36 35 35 36 35 35 37 46 42 45 49 51 51 52 50 47 50 52 58 65 66 67 67 67 68 67 69 70 73 73 73 72 72 72 71 71 71 71 71 71 71 70 70 71 71 70 72 71 70 70 71 72 72 71 70 70 70 70 70 70 70 70 69 69 69 70 70 70 70 70 69 70 71 72 72 72 72 72
42 47 49 48 43 40 33 30 29 25 24 21 18 18 18 23 23 23 24 40 36 35 35 34 33 44 45 53 54 53 57 52 50 51 53 51 53 61 64 66 67 66 66 67 68 69 71 73 73 73 73 72 72 72 71 71 71 71 71 71 70 70 70 71 70 69 70 69 70 71 72 72 71 70 70 70 69 69 69 69 70 69 69 69 68 69 70 70 69 69 70 71 72 72 72 72 72
39 43 44 41 38 34 30 26 25 24 23 21 19 18 15 21 21 22 22 25 29 36 36 35 34 34 49 52 54 56 58 55 55 56 53 52 55 60 63 65 65 65 66 67 68 70 71 73 73 73 73 72 72 72 71 71 71 71 71 70 69 69 70 70 70 69 69 69 69 71 72 72 71 70 70 69 69 69 69 69 68 70 70 68 68 69 70 69 69 70 70 71 72 72 72 72 72
40 38 35 37 34 27 24 24 20 19 19 20 18 15 16 19 20 21 19 26 32 35 42 41 43 49 51 51 53 57 60 54 53 58 54 53 57 58 60 64 64 64 65 69 71 71 73 73 73 73 73 72 72 71 71 71 71 71 71 70 70 69 68 69 69 69 68 69 69 70 72 71 71 70 70 69 69 69 69 68 68 68 68 69 68 68 69 69 69 70 70 71 72 73 72 72 71
33 34 35 32 30 26 22 20 17 16 15 16 16 18 36 18 19 19 20 34 40 41 49 40 43 47 58 56 57 58 62 60 57 61 54 54 56 57 62 64 63 65 67 69 71 72 72 73 73 73 73 72 72 71 71 71 71 71 70 70 70 69 68 68 68 68 69 70 70 71 71 71 71 70 69 69 70 69 69 69 69 68 68 67 67 67 69 70 69 69 70 71 72 72 72 71 72
30 31 29 29 28 26 21 19 19 18 16 15 15 15 14 13 18 20 21 21 32 37 33 36 38 54 49 53 55 56 59 62 59 57 55 56 56 57 63 64 65 66 68 71 72 71 71 73 73 73 73 72 71 71 71 71 71 71 71 70 70 69 68 68 68 69 69 69 69 70 70 70 71 70 69 70 69 69 70 69 69 69 68 68 68 69 70 69 68 69 69 71 72 72 72 71 72
28 28 28 25 24 24 23 20 19 19 19 18 17 16 15 14 13 15 17 19 25 37 34 38 48 58 53 58 58 60 61 62 59 57 55 56 56 61 63 63 65 66 70 71 71 70 71 72 73 73 72 72 72 72 71 71 71 71 71 70 70 70 68 68 68 68 68 68 68 68 70 70 70 70 69 70 69 69 69 69 69 68 68 68 69 69 69 69 68 68 69 70 71 72 71 71 72
26 28 24 22 22 21 22 23 21 19 19 19 18 18 16 15 15 15 17 17 20 31 38 37 52 52 54 58 59 62 60 62 60 58 56 57 60 61 62 63 64 67 68 69 70 70 70 71 72 73 72 72 72 72 72 71 71 71 71 70 70 70 69 68 68 68 68 68 68 69 69 70 70 70 69 70 70 69 70 69 69 69 69 69 68 69 68 68 68 68 69 70 71 71 71 70 71
25 27 25 21 20 20 19 19 19 22 20 18 18 19 16 15 14 15 17 18 18 21 45 47 52 51 55 59 59 60 60 61 61 60 59 60 60 61 63 64 66 67 67 69 69 69 69 70 69 71 72 71 72 72 72 72 72 72 71 70 70 70 70 69 68 68 68 68 68 69 70 70 70 70 70 70 70 70 70 69 69 69 69 68 68 69 68 68 67 68 69 70 71 71 70 70 70
25 27 25 22 20 18 17 16 17 17 17 18 19 20 18 17 16 15 16 15 29 35 44 57 55 52 59 60 63 59 61 61 61 60 60 60 59 60 62 64 66 66 66 67 67 67 68 69 70 69 72 71 71 72 72 72 72 72 71 71 70 70 70 69 68 69 69 69 70 70 70 71 70 70 70 70 70 70 70 70 69 69 69 69 68 69 68 68 68 69 69 70 71 71 71 71 70
28 24 25 23 20 19 19 17 15 15 14 16 18 18 19 22 20 18 17 16 33 28 40 40 56 50 55 56 58 60 60 60 61 61 60 58 57 60 62 63 66 66 66 67 66 67 68 69 69 70 72 71 70 70 71 71 72 72 71 71 71 70 70 69 69 69 69 69 70 70 70 71 71 70 71 71 70 70 70 69 69 69 68 68 68 69 68 68 67 68 69 69 71 71 71 71 71
32 29 26 24 22 19 18 18 18 14 14 17 18 17 19 18 19 16 16 15 37 30 34 42 42 48 48 45 57 59 61 60 60 59 58 57 58 61 63 64 64 65 66 67 67 67 68 68 68 69 70 71 70 70 70 71 72 72 72 71 71 70 70 70 70 70 69 69 69 70 71 71 71 70 71 70 70 70 69 69 69 68 68 68 68 69 68 68 68 68 69 69 70 71 71 70 70
31 27 27 25 22 21 18 18 18 15 14 15 16 17 18 20 20 18 18 16 25 26 36 40 42 46 45 48 55 61 62 61 62 59 58 61 63 63 64 64 64 65 67 66 67 67 68 67 68 67 69 71 71 70 70 70 71 72 72 72 72 71 71 70 70 70 70 69 69 69 71 70 71 71 70 68 70 69 70 69 69 69 68 68 68 69 68 67 68 68 68 68 70 71 71 71 70
29 29 31 27 25 19 21 20 19 17 17 16 17 17 18 18 20 20 20 17 17 40 42 45 46 48 54 59 57 62 62 61 62 60 60 62 63 62 63 62 62 64 65 65 66 67 67 66 67 67 67 71 71 70 70 70 71 71 71 71 71 71 71 70 70 68 69 68 69 68 69 70 70 69 69 70 69 69 69 69 69 69 68 68 68 69 69 68 68 68 68 69 67 70 71 69 70
25 28 31 34 35 25 25 24 20 19 19 21 20 20 18 18 19 21 20 17 20 39 42 46 52 56 59 63 58 59 61 61 63 63 60 61 61 62 62 62 62 64 64 65 66 66 66 66 66 67 66 69 71 70 70 70 69 69 70 69 69 71 70 69 68 67 65 65 66 67 68 69 68 69 69 70 69 70 69 70 69 68 68 68 68 68 69 68 68 68 68 67 67 70 71 68 67
23 23 19 24 30 32 29 27 23 20 20 22 21 21 21 21 18 20 19 18 18 43 45 45 53 57 60 62 63 63 64 64 66 64 61 59 59 61 61 62 61 63 64 64 65 66 65 65 67 66 65 68 70 70 70 70 69 68 70 69 69 70 70 68 67 67 64 63 63 66 67 68 67 69 68 71 70 69 69 70 69 69 68 68 68 68 69 69 68 68 68 68 70 66 65 63 64
21 19 19 22 24 26 28 27 23 22 23 23 21 21 21 26 22 19 20 18 19 21 46 47 51 59 62 63 65 64 64 63 66 66 63 58 60 62 61 63 63 63 64 65 65 65 64 66 68 67 67 68 68 70 70 69 69 68 69 69 69 69 69 69 68 67 65 64 63 66 64 66 65 67 68 69 69 69 69 69 68 67 67 67 68 67 67 64 68 62 61 67 64 60 58 59 62
20 19 19 21 22 22 22 23 23 23 24 21 20 21 22 27 27 22 21 21 20 22 43 48 55 59 60 62 63 62 62 64 65 65 65 65 64 63 63 63 66 65 65 64 64 64 64 66 67 67 69 68 68 70 70 69 69 67 68 69 69 69 69 69 68 67 65 65 64 63 64 65 66 65 65 66 68 68 68 67 67 67 67 65 67 66 65 64 63 60 58 57 58 59 56 56 60
17 19 20 20 19 19 22 23 23 23 23 22 21 22 22 32 29 27 24 20 21 23 44 39 54 57 60 61 62 62 63 65 64 64 63 63 64 65 66 65 65 62 63 63 64 64 66 66 65 67 69 69 69 70 70 69 68 68 68 69 68 68 69 68 68 67 66 67 65 63 65 64 65 65 63 65 66 67 67 66 66 66 65 64 67 65 65 64 63 60 60 59 58 56 54 53 57
15 16 17 18 19 19 19 19 21 21 21 21 22 22 20 23 25 28 25 22 23 26 26 41 51 57 59 62 63 63 64 64 63 64 63 64 64 64 65 68 65 65 63 64 63 65 66 63 64 66 68 69 68 69 69 69 68 68 69 69 69 68 68 68 68 67 66 67 66 65 67 63 64 67 64 65 65 67 66 66 65 65 64 63 66 64 63 63 62 59 58 58 56 53 52 54 56
12 13 15 15 17 20 20 19 18 19 22 22 22 22 20 20 25 25 23 24 26 26 25 36 45 54 58 61 62 63 64 64 63 64 63 64 64 65 67 67 69 65 63 65 64 65 64 65 63 65 66 68 68 69 68 69 69 68 68 68 68 69 68 68 67 67 65 65 67 66 66 67 64 66 65 64 65 66 66 66 65 63 63 63 65 63 61 63 63 60 58 57 57 56 56 62 57
8 11 12 13 14 16 17 18 19 19 20 21 22 22 22 22 24 24 24 22 25 26 27 28 51 54 56 57 63 63 64 64 65 63 63 64 64 66 66 65 65 68 65 65 65 65 63 64 62 65 67 67 68 69 67 69 69 68 68 68 69 68 69 69 68 67 66 64 66 66 67 69 66 65 66 65 63 65 65 66 65 64 64 65 65 60 60 63 65 62 60 59 56 61 55 62 60
4 6 8 11 13 14 15 15 17 19 19 20 20 21 22 23 23 21 34 26 23 25 28 28 50 53 52 60 62 63 65 65 64 63 64 64 65 66 65 64 64 67 67 66 65 65 66 63 63 65 66 68 69 67 68 69 69 69 68 69 69 68 69 69 67 67 65 65 67 69 67 68 68 67 65 66 64 66 66 67 67 67 66 67 67 61 62 65 66 63 60 62 61 58 55 60 57
5 3 2 7 10 12 13 13 14 14 15 18 19 19 20 21 23 23 23 25 26 26 28 29 42 46 49 58 60 63 64 64 64 66 64 63 63 64 64 65 66 68 69 67 66 65 66 64 64 65 67 69 68 67 68 69 69 69 69 68 69 68 70 68 67 69 65 65 66 68 69 67 68 68 68 66 64 67 66 67 69 69 68 69 68 65 65 66 65 61 60 62 64 64 65 65 65
8 9 9 8 5 8 12 11 12 14 13 15 17 17 18 19 20 22 23 25 23 24 28 29 26 45 47 59 61 63 64 65 65 67 65 64 67 64 63 65 67 66 68 67 67 66 66 67 65 65 67 69 68 68 68 69 68 68 68 68 68 69 69 68 68 68 67 66 68 66 68 67 68 68 70 68 66 66 67 68 68 68 68 68 70 68 65 70 68 68 68 67 65 65 63 67 68
8 8 7 7 8 10 14 10 13 16 16 14 15 11 12 15 16 18 25 24 25 25 28 27 27 33 42 56 59 62 61 62 61 63 65 65 65 63 63 64 64 65 67 67 68 67 67 68 68 68 68 69 69 69 69 69 68 68 68 68 68 69 68 68 68 69 68 66 68 66 67 66 68 69 69 68 68 67 68 68 66 68 68 68 67 68 69 68 66 67 67 65 66 64 67 69 68
5 6 6 7 7 8 11 12 13 14 14 12 15 13 11 11 11 19 23 30 30 27 28 29 32 36 37 49 52 54 57 61 61 60 65 66 64 63 65 64 65 67 68 67 67 67 67 68 69 68 69 69 69 69 69 69 69 67 67 66 68 68 68 67 67 68 67 66 65 66 67 67 67 68 69 69 69 67 67 66 66 66 66 67 66 69 69 67 66 66 66 64 66 66 68 69 69
4 4 4 5 5 6 8 11 12 12 14 15 15 15 13 9 14 26 39 32 33 29 29 29 34 38 38 46 50 53 58 62 63 64 66 67 64 63 66 65 67 66 67 67 68 68 66 67 68 69 69 69 68 69 68 69 68 68 66 67 68 68 67 65 67 66 65 64 65 66 66 66 66 67 68 68 69 67 66 65 66 65 67 65 67 68 68 65 64 66 66 66 66 68 67 67 68
0 3 4 3 3 3 4 4 6 10 12 13 15 14 13 11 18 25 44 40 36 31 28 29 36 43 42 39 47 49 56 60 64 64 64 66 65 64 67 67 68 69 69 68 68 68 67 67 68 69 69 68 69 69 69 69 69 67 67 67 68 68 67 66 64 65 64 63 66 65 66 67 64 66 67 66 68 68 66 65 66 67 68 66 69 70 66 67 70 67 69 67 67 68 68 67 67
-1 -3 -0 -0 1 2 2 3 2 2 6 8 11 12 12 13 17 15 21 41 33 29 27 29 32 33 40 36 38 50 53 58 60 63 65 65 64 64 66 68 70 69 69 69 68 67 66 66 68 69 68 68 69 68 68 68 68 67 66 66 68 67 66 66 64 64 64 63 66 65 65 66 63 66 67 66 69 70 68 67 67 68 69 70 70 72 70 71 71 69 66 67 68 68 68 67 66
1 2 2 -4 -6 -4 -4 0 2 2 2 2 4 6 8 12 14 14 21 28 25 23 24 21 22 25 34 39 36 36 55 56 59 60 62 64 67 65 66 70 71 70 70 69 69 68 67 67 67 69 68 68 68 69 68 69 69 68 67 67 67 67 66 65 65 64 64 62 65 65 64 66 65 66 67 67 69 69 69 69 70 70 70 71 70 69 69 70 71 70 66 66 68 68 68 67 66
-3 -3 -4 -5 -3 -7 -7 -6 -2 3 2 1 -0 1 6 8 12 15 15 25 22 16 23 28 28 27 30 35 37 34 36 58 59 57 61 63 67 68 68 71 70 70 70 70 69 68 68 68 68 68 68 68 68 68 68 67 66 65 65 65 65 65 65 65 65 64 64 60 65 64 65 67 64 68 67 68 70 69 69 70 70 71 70 70 70 68 68 69 70 69 66 64 66 67 68 68 68
-4 -5 -4 -3 -5 -9 -6 -5 -4 -1 -0 2 1 1 2 4 5 9 14 19 20 21 18 26 31 31 33 32 36 37 38 49 58 60 63 64 66 68 70 71 70 70 70 70 69 68 68 67 67 67 68 68 67 66 66 65 65 64 64 63 64 66 64 65 65 66 62 60 64 64 65 68 65 67 67 67 69 70 69 70 71 71 69 68 69 69 70 69 68 68 68 67 67 65 66 67 68
6 5 4 2 1 0 -3 -15 2 -3 -5 -1 4 3 4 2 3 8 12 15 13 16 19 22 24 29 33 35 34 34 38 48 57 58 63 64 65 69 70 70 70 69 69 70 69 68 68 67 68 67 67 68 67 67 66 66 65 64 63 62 64 64 64 63 63 65 63 61 64 65 66 67 66 67 67 67 69 69 69 70 70 70 70 69 70 70 69 70 69 67 66 65 66 66 66 65 65
5 2 0 1 2 4 5 5 3 6 2 -0 1 4 9 9 8 8 12 14 17 16 19 25 25 25 31 33 33 34 37 42 54 54 60 65 67 68 70 70 70 70 69 69 69 69 69 68 68 68 67 68 68 67 67 66 66 66 65 63 64 64 63 64 62 64 64 60 65 65 68 66 66 66 66 67 68 68 69 69 69 70 69 69 69 69 69 69 69 68 67 65 64 66 66 66 66
2 -0 -1 -5 -5 -3 0 4 6 6 5 3 4 4 9 12 15 16 16 14 13 13 7 15 21 24 26 31 32 34 33 38 51 53 56 66 67 68 69 70 70 70 70 69 70 69 68 68 68 68 68 68 68 68 67 67 68 68 67 66 65 64 62 64 66 65 65 60 62 65 67 66 66 65 65 65 65 67 69 69 69 69 69 69 69 69 69 69 68 68 68 67 65 63 64 65 66
-1 -3 -4 -5 -5 -5 -5 -4 -2 -2 -2 -1 1 4 5 11 11 13 14 15 15 13 13 13 19 26 27 26 26 33 33 37 48 53 53 64 67 68 68 70 70 69 70 70 70 69 69 68 68 68 68 68 68 68 68 68 68 68 67 67 66 67 67 64 64 63 65 61 60 63 64 67 66 66 65 64 64 67 68 69 69 69 69 70 69 69 68 69 68 67 67 67 65 64 63 64 64
-1 0 -0 -1 -2 -3 -3 -3 -3 -4 -1 -2 -4 -2 3 8 8 12 14 15 15 15 12 12 16 18 18 22 25 31 37 37 41 51 53 55 65 67 68 69 69 69 70 70 70 70 69 68 68 68 68 68 68 68 68 68 67 66 66 65 64 64 64 63 63 63 64 61 58 62 62 66 66 65 65 64 63 66 68 69 69 67 69 70 69 69 69 69 68 67 66 66 66 65 64 63 64
1 -1 -1 -1 -1 -5 -2 -2 -3 1 2 -2 -2 -0 2 2 5 10 14 14 16 18 19 17 16 16 17 20 20 24 33 37 39 46 50 53 55 68 68 69 69 70 70 70 70 70 70 69 68 68 68 68 69 69 68 68 67 66 66 64 64 63 64 64 65 66 65 63 63 64 63 66 65 65 65 64 64 65 67 68 68 68 68 69 69 69 69 69 69 67 66 66 66 65 64 62 62
-8 -4 -4 -3 -4 -4 -2 -1 -3 -2 -1 0 0 -0 1 2 4 7 9 11 11 13 14 18 14 17 20 16 20 22 27 34 37 37 45 53 54 62 67 68 68 69 70 70 70 70 70 69 69 68 68 68 68 68 67 68 67 66 66 64 64 64 64 65 65 66 67 65 64 64 63 65 65 64 65 64 64 65 66 68 68 68 68 68 68 67 68 69 69 68 68 67 67 66 65 64 64
-6 -4 -4 -2 -1 0 -0 -0 1 1 1 1 0 0 4 3 6 5 6 6 4 7 10 11 13 17 19 23 19 18 22 30 31 40 41 53 54 57 65 67 68 68 70 69 69 70 70 70 69 69 68 68 68 68 67 67 68 67 66 65 65 65 65 66 65 65 67 67 65 65 63 62 64 64 63 65 64 64 66 66 67 67 68 67 67 67 67 68 69 68 68 68 67 67 66 67 65
-2 -2 -2 1 4 2 1 -1 -2 -0 1 2 -2 -1 1 -1 3 4 7 6 9 10 10 11 12 20 19 17 20 25 22 29 33 34 40 48 58 58 61 66 68 68 70 69 70 70 70 69 69 69 69 68 68 69 68 67 68 67 67 66 66 65 65 66 65 65 66 67 66 65 64 64 63 64 64 63 64 64 65 65 66 66 68 67 66 66 67 68 69 68 68 68 67 66 68 66 65
4 4 3 1 -1 -0 1 1 -1 1 1 -2 -4 -3 -3 -1 3 2 5 5 -1 2 7 9 11 13 16 25 20 14 23 30 26 28 35 42 59 59 61 65 67 68 70 70 69 69 69 69 69 69 69 69 68 69 68 68 68 67 67 66 66 65 65 66 65 66 66 67 66 65 65 64 64 64 65 65 65 65 66 66 66 66 67 67 66 65 66 66 68 68 68 68 67 67 67 66 66
4 2 2 2 3 1 3 3 2 3 0 -1 -4 -5 -4 -1 1 1 5 3 1 4 4 8 12 10 14 22 19 12 13 23 25 25 25 34 60 65 65 66 67 68 70 69 69 69 69 69 69 69 69 69 69 69 69 68 68 68 67 67 67 67 66 65 65 65 65 66 66 65 66 65 65 66 66 66 66 66 67 67 67 67 66 67 67 67 67 67 69 68 68 68 67 67 67 66 66
5 4 4 4 2 2 3 2 5 3 -1 -0 -2 -2 -3 -3 1 2 2 1 -1 2 -4 2 6 6 18 17 17 19 18 21 24 26 35 41 48 62 62 63 66 66 67 69 69 69 70 70 69 69 69 69 69 69 69 68 68 68 67 67 67 67 67 65 65 66 66 66 66 66 66 65 65 65 66 66 66 66 67 67 67 67 67 68 67 67 67 67 68 68 68 67 67 66 66 66 66
7 8 10 7 5 5 5 3 6 3 3 1 1 5 7 6 1 -0 -2 2 2 3 6 5 2 14 16 11 16 14 21 18 19 24 23 29 38 52 62 61 61 64 66 68 68 69 69 69 69 68 68 69 69 69 69 68 68 68 68 67 67 67 67 66 66 66 66 66 67 66 66 65 65 65 66 66 66 66 66 67 67 67 68 68 67 67 67 67 68 67 67 67 66 66 66 66 66
8 10 9 9 7 5 7 5 5 6 5 5 6 6 9 7 9 0 -0 -1 1 -0 1 6 10 8 19 15 1 12 16 19 17 15 19 25 34 38 56 61 61 63 68 68 68 68 68 68 68 68 68 69 69 69 69 68 68 68 68 68 68 68 67 67 67 67 67 66 66 66 67 66 66 66 66 67 66 66 66 67 67 67 67 68 67 67 67 67 68 67 66 66 66 67 67 67 66
9 7 4 7 11 25 10 10 9 9 8 9 9 11 9 7 9 8 7 7 4 3 1 7 5 7 7 11 10 10 15 17 16 20 23 29 33 36 40 59 60 64 67 68 69 69 69 68 68 68 68 68 68 68 69 69 68 68 69 69 69 68 67 68 68 67 68 67 67 66 67 67 67 67 67 67 67 66 66 66 67 67 67 68 67 67 67 66 67 67 66 67 67 66 66 66 65
10 6 11 8 7 7 14 16 13 15 12 8 12 10 7 5 3 1 3 2 4 4 1 -2 2 2 14 9 8 11 12 13 21 24 24 34 36 42 40 50 61 67 67 68 70 70 70 70 69 68 68 68 68 68 69 69 69 69 69 70 69 69 68 68 67 67 68 68 68 68 68 68 68 68 67 67 67 67 67 66 65 66 67 68 67 67 67 67 67 66 66 66 66 65 65 64 64
10 10 9 10 10 8 12 8 12 9 7 10 8 5 3 0 4 -3 -1 3 2 4 7 4 10 10 14 15 20 19 16 16 16 19 25 37 37 40 43 49 55 64 66 68 69 70 71 70 70 69 69 68 68 68 68 69 69 69 69 70 70 69 68 68 68 67 68 68 68 68 68 68 68 68 67 67 67 67 67 66 66 65 67 68 67 67 66 66 66 66 65 65 65 65 64 64 64
11 11 14 11 14 13 15 13 8 8 8 7 6 4 3 2 5 2 1 1 3 6 8 9 6 9 8 9 10 13 18 25 27 25 24 23 29 45 51 53 58 63 67 69 68 69 70 70 70 70 69 69 69 68 69 69 70 70 69 69 70 69 69 69 68 68 68 68 68 68 67 67 68 68 67 67 67 66 66 66 66 66 67 67 67 67 67 67 65 65 65 65 64 64 63 63 63
15 17 16 15 14 14 10 17 14 13 10 9 5 4 6 5 5 8 5 4 4 3 8 7 8 8 16 19 14 15 21 26 23 23 17 16 24 35 49 61 54 58 60 67 67 68 68 69 69 70 69 69 69 68 69 69 69 69 69 69 69 69 69 68 68 68 68 67 67 67 67 67 68 68 67 67 66 66 66 66 66 66 66 67 67 67 67 66 65 65 65 64 64 63 62 62 62
17 13 14 15 18 16 15 17 11 12 11 10 9 8 9 10 5 6 7 7 6 3 2 5 8 10 12 14 24 32 26 27 26 24 24 27 32 40 41 48 45 47 55 60 64 67 68 68 68 69 69 69 69 68 68 69 69 69 69 69 69 69 69 69 68 68 68 67 67 67 67 67 67 68 67 67 66 66 65 66 65 65 65 66 66 67 66 66 65 65 64 64 63 62 61 61 61
14 13 12 7 9 12 13 14 15 12 9 11 10 10 11 10 4 5 5 6 7 5 7 8 1 2 17 25 28 28 30 32 42 39 32 30 32 45 54 50 53 57 47 52 52 56 60 64 66 67 67 68 68 68 69 69 69 69 69 69 69 69 69 69 69 68 68 67 67 67 67 67 67 67 67 66 66 66 65 65 64 64 64 65 66 66 65 65 64 64 64 64 63 61 60 60 60